STARLINK-1824 (46721 NORAD) Tracking and Keplerian Element Data

This shows tracking and keplerian element data for the satellite.

Feedback or suggestion? Click here.




ElementValue
Catalog46721
NameSTARLINK-1824
Epoch Orbit656
Epoch Day331.16668981
Epoch Year2020
RAAN279.0991
Inclination53.0548
Eccentricity0.0001108
Argument of Perigee70.4461
Mean Anonmoly52.7373
Mean Motion15.62838503
Decay Rate-0.00063021
L11 46721U 20073BD 20331.16668981 -.00063021 00000-0 -68550-3 0 9997
L22 46721 53.0548 279.0991 0001108 70.4461 52.7373 15.62838503 6561

Live tracking and technical data element details for STARLINK-1824 (NORAD 46721). STARLINK-1824 can be tracked NOW for your location showing map with azimuth and elevation plus other details from your city location.

Track the satellite on the map from your city or location and see movement details for azimuth, elevation, latitude, longitude, range, height, and movement on the map or in text.







IsCatalogInMostPopularTable: catalog: 46721, numindb: 7
Update: records affected: 1



GetName: 46721 STARLINK-1824

Hit Count: updated at: Thu, 26 Nov 2020 17:41:26 GMT